"Pseudo-MPEC" for QQ-2C

Created 2024 Mar 23 23:02:23 UT using Find_Orb

Click here for an explanation of pseudo-MPECs

You can click here for a pseudo-MPEC for the Queqiao-2 spacecraft or here for a pseudo-MPEC for the Queqiao-2 booster.

You can find TLEs for all three known Queqiao objects (look for '24051a.tle' = spacecraft, '24051b.tle' = booster, and 'qq2c.tle' = either Tiandu-1 or Tiandu-2, we don't know which one.) You can also get customized ephemerides for any of these objects.

 
 Astrometry: 
     A115fct* C2024 03 21=d=R-)8%D1\e#+h%wUGAstrometrybXtBSW,0N['9yY(LbJfxii]T05
     A115fct  C2024 03 21WHyUW=it9CQF-Z[4redacted;sZHs=NNYRnWB7ny_m.qn`Bs)t?6T05
     A115fct  C2024 03 21T!%'click5MT,here!(?SPvOgD)M87D`q^(khV0X0e]kUdFa?('MT05
     A115fct  C2024 03 21YWF+MnwK.H069Rm$0WCH#xfI:,+AYdR5eTu8Ld0tt!4Lnl6%58(hT05
     A115fct  C2024 03 21%+(e7#D!U3@ford.YfZww/KxwQFig%XZbexplanationF_G(J^+HT05
     A115fct KB2024 03 21.63246 11 31 16.84 -02 40 14.3    ~3M2t 18.1 GVNEOCPO46
     A115fct KB2024 03 21.64391 11 31 10.14 -02 38 50.6    ~3M2t 17.8 GVNEOCPO46
     A115fct KB2024 03 21.65542 11 31 02.98 -02 37 26.4    ~3M2t 18.2 GVNEOCPO46
     A115fct KB2024 03 21.66674 11 30 55.49 -02 36 03.4    ~3M2t 18.3 GVNEOCPO46
     A115fct mC2024 03 22.12605011 40 56.672-01 47 14.89   ~3M3N 17.12GVNEOCPI52
     A115fct mC2024 03 22.12621911 40 56.719-01 47 13.85   ~3M3N 16.90GVNEOCPI52
     A115fct mC2024 03 22.12936011 40 56.849-01 46 57.43   ~3M3N 16.95GVNEOCPI52
     A115fct mC2024 03 22.13249711 40 56.921-01 46 40.62   ~3M3N 16.92GVNEOCPI52
     A115fct KC2024 03 22.14432711 39 33.50 -01 53 17.1          17.3 GV     H21
     A115fct  B2024 03 22.14600111 34 51.318-01 55 14.77         18.5 VZNEOCPY89
     A115fct KC2024 03 22.14625511 39 32.76 -01 53 06.3          17.3 GV     H21
     A115fct KC2024 03 22.14818411 39 31.99 -01 52 55.6          17.3 GV     H21
     A115fct KC2024 03 22.15011211 39 31.21 -01 52 44.6          17.3 GV     H21
     A115fct  B2024 03 22.15622711 34 52.371-01 54 08.24         18.8 VZNEOCPY89
     A115fct  B2024 03 22.16682311 34 54.067-01 52 58.61         17.1 VZNEOCPY89
     A115fct KB2024 03 22.19101 11 39 41.350-01 48 08.71         17.1 RZ     H36
     A115fct KB2024 03 22.19384 11 39 39.938-01 47 52.30         16.9 RZ     H36
     A115fct KB2024 03 22.19604 11 39 38.846-01 47 39.88         17.2 RZ     H36
     A115fct KB2024 03 22.21031 11 40 31.41 -01 39 12.1          18.4 VZ     V24
     A115fct KB2024 03 22.21318 11 40 29.83 -01 38 56.3          17.1 VZ     V24
     A115fct KB2024 03 22.21570 11 40 28.45 -01 38 43.3          17.4 VZ     V24
     A115fct KB2024 03 22.23575 11 40 16.36 -01 36 53.7          17.0 VZ     V24
     A115fct KB2024 03 22.23862 11 40 14.56 -01 36 38.9          18.0 VZ     V24
     A115fct KB2024 03 22.24222 11 40 12.23 -01 36 18.6          18.0 VZ     V24
       QQ-2C  C2024 03 22.27991 11 39 54.95 -01 41 24.3          17.1   MPML 718
       QQ-2C  C2024 03 22.28065 11 39 54.71 -01 41 19.7          16.9   MPML 718
       QQ-2C  C2024 03 22.28178 11 39 54.03 -01 41 13.8          17.2   MPML 718
       QQ-2C  C2024 03 22.28234 11 39 53.70 -01 41 10.4          17.0   MPML 718
     A115fct KB2024 03 22.30840 11 38 36.684-01 36 54.94         17.2 RZ     H36
     A115fct KB2024 03 22.31271 11 38 34.642-01 36 29.84         17.4 RZ     H36
     A115fct KB2024 03 22.31694 11 38 32.686-01 36 05.15         17.1 RZ     H36

Station data:
(718) Tooele  (N40.641406 W112.295800)  US/Utah.  Observer P. Wiggins. 0.35-m
   f/5.5 Schmidt-Cassegrain + CCD.
(H21) Astronomical Research Observatory, Westfield  (N39.483054 W87.968270)
   US/Illinois.  Observer R. Holmes. Measurers S. Foglia, L. Buzzi, T.
   Linder, R. Holmes. 0.76-m f/3.0 astrograph + CCD0.81-m f/4.0 astrograph +
   CCD0.61-m f/4.5 astrograph + CCD0.40-m f/5.32 astrograph + CCD.
(H36) Sandlot Observatory, Scranton  (N38.797700 W95.706554)  US/Kansas.
   Observer G. Hug. 0.56-m reflector + CCD.
(I52) Steward Observatory, Mt. Lemmon Station  (N32.442544 W110.788920)
   US/Arizona.  Observers T. A. Pruyne, B. M. Africano, E. J. Christensen, G.
   A. Farneth, D. C. Fuls, A. R. Gibbs, A. D. Grauer, H. Gröller, J. A.
   Johnson, R. A. Kowalski, S. M. Larson, G. J. Leonard, D. Rankin, R. L.
   Seaman, F. C. Shelly, K. W. Wierzchoś. 1.0-m prime focus + CCD.
(O46) Daocheng Glacier Observatory  (N29.011748 E100.226640)  China.
   Observer Z. Wang. 0.25-m f/8 reflector + CMO.
(T05) ATLAS-HKO, Haleakala  (N20.707582 W156.257008)  US/Hawaii.  Observers
   L. Denneau, A. Heinze, H. Weiland, J. Tonry, H. Flewelling, A.
   Fitzsimmons, D. Young, B. Stalder. Measurers L. Denneau, A. Heinze, J.
   Tonry. 0.5-m f/2.0 Schmidt + CCD.
(V24) Sonoran Desert Skies Observatory, Pearce  (N31.866802 W109.515970)
   US/Arizona.
(Y89) Proxima Centauri Observatory, Valdin  (N42.222443 W6.988110)  Spain.
   Observer R. Hahn. 0.36-m f/2.0 reflector + CMO.

Orbital elements:  QQ-2C
   Perigee 2024 Mar 20.036990 +/- 0.000534 TT =  0:53:15.9 (JD 2460389.536990)
Epoch 2024 Mar 20.0 TT = JDT 2460389.5                           Find_Orb
M 358.778995158 +/- 0.017           (J2000 equator)
n  33.009124603 +/- 0.0202          Peri.  185.294901 +/- 0.007
a207737.1495 +/- 84.8               Node   177.612599 +/- 0.00053
e   0.96757444 +/- 1.03e-5          Incl.   21.014125 +/- 0.0023
P  10.9059d                H 30.76  G  0.15   U 10.1
q 6735.993134 +/- 2.03    Q 408738.3059 +/- 168
From 36 observations 2024 Mar. 21-22 (17.5 hr); mean residual 0".730

Orbital elements:  QQ-2C (lunar arrival)
   Perilune 2024 Mar 24.734778 +/- 0.000257 TT = 17:38:04.8 (JD 2460394.234778)
Epoch 2024 Mar 24.7 TT = JDT 2460394.2                           Find_Orb
q  2027.628418 +/- 23.5             (J2000 ecliptic)
H   30.76 G 0.15                    Peri.  125.438170 +/- 0.33
                                    Node   274.801086 +/- 0.52
e   1.29933760 +/- 0.0036           Incl.  105.072887 +/- 2.1
From 36 observations 2024 Mar. 21-22 (17.5 hr); mean residual 0".730
Residuals in arcseconds: 
240321 T05 .666- .189-    240322 I52 1.15+ .591+    240322 V24 .241- .128+
240321 T05 .217+ .595-    240322 H21 .846+ .417+    240322 V24 .049+ .511-
240321 T05 .931+ .920-    240322 Y89 .220- 1.21+    240322 V24 .978- .054+
240321 T05 .667+ .146+    240322 H21 .845+ .354+    240322 V24 .478- .828-
240321 T05 1.16+ .467-    240322 H21 .647+ .178+    240322 V24 .428- .227-
240321 O46 1.47- .214+    240322 H21 .534+ .299+    240322 718 1.90- .380-
240321 O46 1.81- .534+    240322 Y89 1.18+ .420+    240322 718 .536+ .055+
240321 O46 .693- .444+    240322 Y89 .252+ .456+    240322 718 .433- .407-
240321 O46 .297- .081+    240322 H36 .349+ .517-    240322 718 .804- .161-
240322 I52 .872+ .190+    240322 H36 .214+ .034-    240322 H36 1.27- .634-
240322 I52 1.42+ .343+    240322 H36 .448+ .007-    240322 H36 1.32- .686-
240322 I52 1.09+ .267+    240322 V24 .066+ .156-    240322 H36 1.60- .697-

Ephemerides (geocentric):
Date (UTC) HH   RA             Dec           delta elong  mag  LuElo " sig PA
---- --------  ------------   ------------  ------ -----  ---  ----- --------
2024 03 20 01  02 43 50.605   -14 47 14.85    7607  43.4 15??   91.7 181' 105
2024 03 20 02  08 17 56.657   -17 03 15.71   25389 123.0 14.0   41.5  977  78
2024 03 20 03  09 15 45.858   -13 27 38.93   40422 137.4 14.6   39.5  377  74
2024 03 20 04  09 42 52.824   -11 25 55.10   53251 144.3 15.0   39.7  211  73
2024 03 20 05  09 59 39.977   -10 04 48.88   64683 148.6 15.3   40.2  138  72
2024 03 20 06  10 11 29.545   -09 05 18.39   75119 151.7 15.5   40.6 98.5  72
2024 03 20 07  10 20 28.458   -08 18 54.87   84796 154.0 15.7   40.9 74.1  72
2024 03 20 08  10 27 38.362   -07 41 13.25   93863 155.8 15.9   41.1 57.8  72
2024 03 20 09  10 33 33.382   -07 09 39.83  102424 157.4 16.0   41.2 46.3  72
2024 03 20 10  10 38 34.193   -06 42 38.33  110554 158.6 16.1   41.2 37.8  72
2024 03 20 11  10 42 54.173   -06 19 04.84  118312 159.8 16.2   41.2 31.3  72
2024 03 20 12  10 46 42.431   -05 58 14.97  125742 160.7 16.3   41.2 26.2  72
2024 03 20 13  10 50 05.423   -05 39 36.78  132879 161.6 16.4   41.1 22.1  72
2024 03 20 14  10 53 07.872   -05 22 46.53  139752 162.4 16.5   41.0 18.8  72
2024 03 20 15  10 55 53.333   -05 07 26.20  146386 163.1 16.6   40.8 16.1  72
2024 03 20 16  10 58 24.538   -04 53 21.78  152800 163.7 16.7   40.6 13.8  72
2024 03 20 17  11 00 43.629   -04 40 22.20  159013 164.3 16.7   40.4 11.9  73
2024 03 20 18  11 02 52.316   -04 28 18.54  165038 164.8 16.8   40.2 10.3  73
2024 03 20 19  11 04 51.981   -04 17 03.56  170888 165.3 16.9   40.0 8.88  73
2024 03 20 20  11 06 43.757   -04 06 31.30  176576 165.8 16.9   39.7 7.67  73
2024 03 20 21  11 08 28.582   -03 56 36.76  182110 166.2 17.0   39.5 6.63  73
2024 03 20 22  11 10 07.244   -03 47 15.76  187501 166.6 17.0   39.2 5.72  74
2024 03 20 23  11 11 40.405   -03 38 24.75  192754 167.0 17.1   38.9 4.92  74
2024 03 21 00  11 13 08.632   -03 30 00.69  197879 167.4 17.1   38.6 4.23  74
2024 03 21 01  11 14 32.410   -03 22 00.94  202880 167.7 17.1   38.3 3.61  75
2024 03 21 02  11 15 52.158   -03 14 23.25  207765 168.0 17.2   38.0 3.07  75
2024 03 21 03  11 17 08.243   -03 07 05.63  212537 168.3 17.2   37.7 2.60  76
2024 03 21 04  11 18 20.981   -03 00 06.34  217203 168.6 17.3   37.4 2.18  76
2024 03 21 05  11 19 30.655   -02 53 23.85  221765 168.9 17.3   37.1 1.81  77
2024 03 21 06  11 20 37.511   -02 46 56.79  226230 169.2 17.3   36.7 1.49  77
2024 03 21 07  11 21 41.769   -02 40 43.96  230599 169.4 17.4   36.4 1.20  78
2024 03 21 08  11 22 43.625   -02 34 44.27  234877 169.6 17.4   36.0 .951  79
2024 03 21 09  11 23 43.254   -02 28 56.76  239067 169.9 17.4   35.7 .732  80
2024 03 21 10  11 24 40.814   -02 23 20.55  243172 170.1 17.4   35.3 .541  82
2024 03 21 11  11 25 36.446   -02 17 54.86  247195 170.3 17.5   35.0 .375  84
2024 03 21 12  11 26 30.278   -02 12 38.96  251137 170.5 17.5   34.6 .234  88
